When you browse on this site, cookies collect data to enhance your experience and personalize the content and advertising you see.
Visit our Privacy Policy to learn more. By continuing to use the site, you agree to this use of cookies and data.
  • In Hungary
  • List of Countries
  • For 7 days
  • Water Temperature
  • Satellite Maps
  • Weather Map
  • News
  • Weather Widgets
  • user-avatar
    Login

    Hourly Weather Bindura

    Today, 16 January, Wednesday

    Time Temperature Precipitation Wind Pressure Humidity
    00:00 +21°C° 0 mm 1 mps 667 mmHg 92%
    01:00 +21°C° 0 mm 1 mps 667 mmHg 92%
    02:00 +20°C° 0 mm 1 mps 667 mmHg 92%
    03:00 +20°C° 0 mm 1 mps 667 mmHg 92%
    04:00 +20°C° 0 mm 1 mps 667 mmHg 92%
    05:00 +20°C° 0 mm 1 mps 667 mmHg 91%
    06:00 +21°C° 0 mm 1 mps 667 mmHg 87%
    07:00 +22°C° 0 mm 1 mps 668 mmHg 84%
    08:00 +23°C° 0 mm 1 mps 668 mmHg 80%
    09:00 +25°C° 0.3 mm 2 mps 668 mmHg 76%
    10:00 +26°C° 0.3 mm 2 mps 668 mmHg 73%
    11:00 +27°C° 0.3 mm 2 mps 668 mmHg 69%
    12:00 +27°C° 0.8 mm 2 mps 668 mmHg 70%
    13:00 +28°C° 0.8 mm 2 mps 667 mmHg 71%
    14:00 +28°C° 0.8 mm 2 mps 666 mmHg 72%
    15:00 +27°C° 0.7 mm 2 mps 666 mmHg 75%
    16:00 +27°C° 0.7 mm 2 mps 666 mmHg 78%
    17:00 +26°C° 0.7 mm 2 mps 665 mmHg 82%
    18:00 +25°C° 1.4 mm 2 mps 666 mmHg 85%
    19:00 +24°C° 1.4 mm 1 mps 666 mmHg 87%
    20:00 +23°C° 1.4 mm 1 mps 666 mmHg 90%
    21:00 +23°C° 0.3 mm 1 mps 666 mmHg 90%
    22:00 +22°C° 0.3 mm 1 mps 666 mmHg 91%
    23:00 +22°C° 0.3 mm 1 mps 666 mmHg 91%

    Tomorrow, 17 January, Thursday

    Time Temperature Precipitation Wind Pressure Humidity
    00:00 +22°C° 0 mm 1 mps 666 mmHg 92%
    01:00 +21°C° 0 mm 1 mps 666 mmHg 92%
    02:00 +21°C° 0 mm 1 mps 665 mmHg 93%
    03:00 +21°C° 0.2 mm 1 mps 665 mmHg 93%
    04:00 +21°C° 0.2 mm 1 mps 665 mmHg 94%
    05:00 +21°C° 0.2 mm 1 mps 665 mmHg 94%
    06:00 +21°C° 1.1 mm 1 mps 665 mmHg 94%
    07:00 +21°C° 1.1 mm 1 mps 666 mmHg 95%
    08:00 +22°C° 1.1 mm 1 mps 666 mmHg 95%
    09:00 +23°C° 0.5 mm 1 mps 666 mmHg 91%
    10:00 +24°C° 0.5 mm 1 mps 666 mmHg 87%
    11:00 +25°C° 0.5 mm 1 mps 667 mmHg 83%
    12:00 +26°C° 0.8 mm 2 mps 666 mmHg 81%
    13:00 +26°C° 0.8 mm 2 mps 666 mmHg 79%
    14:00 +27°C° 0.8 mm 2 mps 665 mmHg 77%
    15:00 +26°C° 1.7 mm 2 mps 665 mmHg 81%
    16:00 +25°C° 1.7 mm 1 mps 664 mmHg 86%
    17:00 +24°C° 1.7 mm 1 mps 664 mmHg 90%
    18:00 +24°C° 0.9 mm 1 mps 664 mmHg 91%
    19:00 +23°C° 0.9 mm 1 mps 665 mmHg 91%
    20:00 +22°C° 0.9 mm 1 mps 665 mmHg 92%
    21:00 +22°C° 0.2 mm 1 mps 665 mmHg 92%
    22:00 +22°C° 0.2 mm 1 mps 666 mmHg 92%
    23:00 +22°C° 0.2 mm 1 mps 666 mmHg 93%

    Day after tomorrow, 18 January, Friday

    Time Temperature Precipitation Wind Pressure Humidity
    00:00 +21°C° 0.1 mm 1 mps 665 mmHg 93%
    01:00 +21°C° 0.1 mm 1 mps 665 mmHg 94%
    02:00 +19°C° 0.1 mm 0 mps 664 mmHg 95%
    03:00 +19°C° 1.4 mm 0 mps 664 mmHg 95%
    04:00 +19°C° 1.4 mm 0 mps 664 mmHg 96%
    05:00 +19°C° 1.4 mm 0 mps 664 mmHg 96%
    06:00 +21°C° 5.4 mm 1 mps 664 mmHg 96%
    07:00 +21°C° 5.4 mm 1 mps 665 mmHg 97%
    08:00 +21°C° 5.4 mm 1 mps 665 mmHg 97%
    09:00 +21°C° 4.8 mm 1 mps 665 mmHg 97%
    10:00 +21°C° 4.8 mm 1 mps 665 mmHg 96%
    11:00 +22°C° 4.8 mm 1 mps 665 mmHg 96%
    12:00 +22°C° 1.5 mm 1 mps 665 mmHg 94%
    13:00 +23°C° 1.5 mm 1 mps 664 mmHg 92%
    14:00 +23°C° 1.5 mm 1 mps 664 mmHg 91%
    15:00 +23°C° 0.4 mm 1 mps 664 mmHg 91%
    16:00 +23°C° 0.4 mm 1 mps 663 mmHg 91%
    17:00 +23°C° 0.4 mm 1 mps 663 mmHg 91%
    18:00 +23°C° 0.3 mm 1 mps 664 mmHg 93%
    19:00 +22°C° 0.3 mm 1 mps 664 mmHg 95%
    20:00 +21°C° 0.3 mm 1 mps 665 mmHg 97%
    21:00 +21°C° 0.7 mm 1 mps 665 mmHg 98%
    22:00 +21°C° 0.7 mm 1 mps 665 mmHg 98%
    23:00 +21°C° 0.7 mm 1 mps 665 mmHg 98%

    19 January, Saturday

    Time Temperature Precipitation Wind Pressure Humidity
    00:00 +21°C° 1.1 mm 1 mps 665 mmHg 98%
    01:00 +21°C° 1.1 mm 1 mps 664 mmHg 98%
    02:00 +21°C° 1.1 mm 1 mps 664 mmHg 98%
    03:00 +21°C° 1.9 mm 1 mps 664 mmHg 98%
    04:00 +21°C° 1.9 mm 1 mps 664 mmHg 98%
    05:00 +21°C° 1.9 mm 1 mps 664 mmHg 98%
    06:00 +21°C° 1.8 mm 1 mps 664 mmHg 98%
    07:00 +21°C° 1.8 mm 1 mps 665 mmHg 98%
    08:00 +21°C° 1.8 mm 1 mps 665 mmHg 98%
    09:00 +21°C° 0.5 mm 1 mps 665 mmHg 96%
    10:00 +22°C° 0.5 mm 1 mps 665 mmHg 95%
    11:00 +22°C° 0.5 mm 1 mps 665 mmHg 94%
    12:00 +23°C° 0.6 mm 1 mps 665 mmHg 90%
    13:00 +24°C° 0.6 mm 1 mps 665 mmHg 87%
    14:00 +25°C° 0.6 mm 1 mps 665 mmHg 83%
    15:00 +25°C° 0.6 mm 1 mps 665 mmHg 85%
    16:00 +24°C° 0.6 mm 1 mps 664 mmHg 86%
    17:00 +24°C° 0.6 mm 1 mps 664 mmHg 87%
    18:00 +23°C° 0.1 mm 1 mps 664 mmHg 90%
    19:00 +22°C° 0.1 mm 1 mps 665 mmHg 94%
    20:00 +21°C° 0.1 mm 1 mps 665 mmHg 97%
    21:00 +21°C° 0.2 mm 1 mps 665 mmHg 97%
    22:00 +21°C° 0.2 mm 1 mps 665 mmHg 98%
    23:00 +18°C° 0.2 mm 0 mps 665 mmHg 98%

    20 January, Sunday

    Time Temperature Precipitation Wind Pressure Humidity
    00:00 +18°C° 0 mm 0 mps 665 mmHg 98%
    01:00 +18°C° 0 mm 0 mps 665 mmHg 98%
    02:00 +19°C° 0 mm 0 mps 665 mmHg 98%
    03:00 +19°C° 0.1 mm 0 mps 665 mmHg 98%
    04:00 +19°C° 0.1 mm 0 mps 665 mmHg 97%
    05:00 +19°C° 0.1 mm 0 mps 665 mmHg 97%
    06:00 +19°C° 0.2 mm 0 mps 666 mmHg 97%
    07:00 +19°C° 0.2 mm 0 mps 666 mmHg 97%
    08:00 +21°C° 0.2 mm 1 mps 667 mmHg 96%
    09:00 +22°C° 0.4 mm 1 mps 667 mmHg 95%
    10:00 +22°C° 0.4 mm 1 mps 667 mmHg 93%
    11:00 +23°C° 0.4 mm 1 mps 667 mmHg 91%
    12:00 +23°C° 0.7 mm 1 mps 667 mmHg 90%
    13:00 +23°C° 0.7 mm 1 mps 666 mmHg 89%
    14:00 +24°C° 0.7 mm 1 mps 666 mmHg 89%
    15:00 +24°C° 0.4 mm 1 mps 666 mmHg 87%
    16:00 +25°C° 0.4 mm 1 mps 666 mmHg 85%
    17:00 +25°C° 0.4 mm 1 mps 666 mmHg 83%
    18:00 +24°C° 1.4 mm 1 mps 666 mmHg 86%
    19:00 +23°C° 1.4 mm 1 mps 667 mmHg 90%
    20:00 +22°C° 1.4 mm 1 mps 667 mmHg 94%
    21:00 +22°C° 1.3 mm 1 mps 667 mmHg 94%
    22:00 +22°C° 1.3 mm 1 mps 668 mmHg 94%
    23:00 +22°C° 1.3 mm 1 mps 668 mmHg 95%

    21 January, Monday

    Time Temperature Precipitation Wind Pressure Humidity
    00:00 +22°C° 1.1 mm 1 mps 668 mmHg 95%
    01:00 +21°C° 1.1 mm 1 mps 667 mmHg 95%
    02:00 +21°C° 1.1 mm 1 mps 667 mmHg 96%
    03:00 +21°C° 0.8 mm 1 mps 667 mmHg 96%
    04:00 +21°C° 0.8 mm 1 mps 667 mmHg 96%
    05:00 +21°C° 0.8 mm 1 mps 667 mmHg 96%
    06:00 +21°C° 0.3 mm 1 mps 668 mmHg 95%
    07:00 +20°C° 0.3 mm 0 mps 668 mmHg 95%
    08:00 +20°C° 0.3 mm 0 mps 669 mmHg 94%
    09:00 +21°C° 0.2 mm 0 mps 669 mmHg 89%
    10:00 +25°C° 0.2 mm 1 mps 669 mmHg 84%
    11:00 +26°C° 0.2 mm 1 mps 669 mmHg 79%
    12:00 +26°C° 1.2 mm 1 mps 668 mmHg 79%
    13:00 +26°C° 1.2 mm 1 mps 668 mmHg 80%
    14:00 +26°C° 1.2 mm 1 mps 667 mmHg 80%
    15:00 +26°C° 2.1 mm 1 mps 667 mmHg 84%
    16:00 +25°C° 2.1 mm 1 mps 666 mmHg 87%
    17:00 +24°C° 2.1 mm 1 mps 666 mmHg 90%
    18:00 +23°C° 0.9 mm 1 mps 666 mmHg 92%
    19:00 +23°C° 0.9 mm 1 mps 667 mmHg 93%
    20:00 +22°C° 0.9 mm 1 mps 667 mmHg 94%
    21:00 +21°C° 0.2 mm 1 mps 667 mmHg 95%
    22:00 +19°C° 0.2 mm 0 mps 668 mmHg 95%
    23:00 +19°C° 0.2 mm 0 mps 668 mmHg 95%
    Show more